Location: Unspecified
(47.1121°N, 116.3927°W)
Time: 19:24:56
(UTC-07:00)

Okean 3 - Visible Passes

Search period start: 23 March 2019 00:00
Search period end: 02 April 2019 00:00
Orbit: 578 x 601 km, 82.5° (Epoch: 23 March)

Date Brightness Start Highest point End Pass type
(mag) Time Alt. Az. Time Alt. Az. Time Alt. Az.
23 Mar 5.8 04:42:01 10° SE 04:45:31 25° E 04:49:02 10° NNE visible
24 Mar 5.1 04:49:28 10° SSE 04:53:23 35° E 04:57:19 10° NNE visible
25 Mar 4.3 04:57:07 10° S 05:01:17 51° E 05:05:29 10° NNE visible
26 Mar 3.6 05:04:56 10° S 05:09:13 76° E 05:13:33 10° NNE visible
27 Mar 6.5 03:39:12 10° E 03:40:37 11° E 03:42:01 10° ENE visible
27 Mar 3.4 05:12:54 10° SSW 05:17:12 75° W 05:21:32 10° N visible
28 Mar 6.2 03:45:42 10° ESE 03:48:24 16° E 03:51:06 10° NE visible
28 Mar 3.7 05:21:01 10° SSW 05:25:13 51° WNW 05:29:26 10° N visible
29 Mar 5.7 03:52:53 10° SE 03:56:13 23° E 03:59:38 10° NE visible
29 Mar 4.2 05:29:27 11° SW 05:33:16 35° WNW 05:37:15 10° N visible
30 Mar 5.1 04:01:20 17° SE 04:04:05 33° E 04:07:56 10° NNE visible
30 Mar 4.6 05:37:53 11° SW 05:41:21 25° WNW 05:44:57 10° NNW visible
31 Mar 4.4 04:09:43 24° SSE 04:11:58 47° E 04:16:07 10° NNE visible
31 Mar 5.1 05:46:28 10° WSW 05:49:29 18° WNW 05:52:31 10° NNW visible
01 Apr 3.7 04:18:01 32° S 04:19:53 70° E 04:24:12 10° NNE visible
